TB3NHM-11 Weather Reports


time (UTC)temp
C
wind
direction
speed
KPH
gust
KPH
rain 1hr
cm
rain 24hr
cm
rain mn
cm
humidity
%
barometer
mb
20260508075843 22 0 0.0 0.0 0.00 0.00 0.00 42 1008.1
20260508065914 18 0 0.0 0.0 0.00 0.00 0.00 49 1008.0
20260508055945 17 0 0.0 0.0 0.00 0.00 0.00 53 1008.2
20260508050024 15 0 0.0 0.0 0.00 0.00 0.00 57 1008.2
20260508040101 13 0 0.0 0.0 0.00 0.00 0.00 61 1007.9
20260508030138 13 0 0.0 0.0 0.00 0.00 0.00 61 1007.7
20260508020222 14 0 0.0 0.0 0.00 0.00 0.00 55 1007.6
20260508010306 15 0 0.0 0.0 0.00 0.00 0.00 57 1007.5
20260508000350 15 0 0.0 0.0 0.00 0.00 0.00 54 1007.5
20260507220504 17 0 0.0 0.0 0.00 0.00 0.00 46 1007.9
20260507210551 18 0 0.0 0.0 0.00 0.00 0.00 45 1007.8
20260507200632 18 0 0.0 0.0 0.00 0.00 0.00 44 1007.8
20260507190718 18 0 0.0 0.0 0.00 0.00 0.00 41 1007.5
20260507180806 19 0 0.0 0.0 0.00 0.00 0.00 43 1007.3
20260507170904 20 0 0.0 0.0 0.00 0.00 0.00 41 1006.9
20260507161008 22 0 0.0 0.0 0.00 0.00 0.00 35 1006.5
20260507151104 25 0 0.0 0.0 0.00 0.00 0.00 29 1006.2
20260507141145 25 0 0.0 0.0 0.00 0.00 0.00 28 1006.3
20260507131235 26 0 0.0 0.0 0.00 0.00 0.00 25 1006.3
20260507121342 27 0 0.0 0.0 0.00 0.00 0.00 27 1006.7
20260507111416 25 0 0.0 0.0 0.00 0.00 0.00 29 1006.9
20260507101448 24 0 0.0 0.0 0.00 0.00 0.00 29 1007.2
20260507091525 22 0 0.0 0.0 0.00 0.00 0.00 36 1007.7